Weather History for Pittsburgh Allegheny Co., PA

Change the Weather History Date:

Thursday, February 20, 2014

  Actual Average Record
Temperature  
Mean Temperature 42 °F -  
Max Temperature 57 °F 46 °F 61 °F (1991)
Min Temperature 28 °F 26 °F 3 °F (1993)
Degree Days  
Heating Degree Days 22    
Moisture  
Dew Point 33 °F    
Average Humidity 74    
Maximum Humidity 89    
Minimum Humidity 52    
Precipitation  
Precipitation 0.10 in - - ()
Sea Level Pressure  
Sea Level Pressure 29.96 in    
Wind  
Wind Speed 6 mph (SE)    
Max Wind Speed 13 mph    
Max Gust Speed -    
Visibility 8 miles    
Events Rain    
Averages and records for this station are not official NWS values.
T = Trace of Precipitation, MM = Missing Value Source: NWS Daily Summary

Daily Weather History Graph

Daily Weather History Graph

Search for Another Location

Airport:

Trip Planner

Search our weather history database for the weather conditions in past years. The results will help you decide how hot, cold, wet, or windy it might be!

Date:

Astronomy

Feb. 20, 2014 Rise Set
Actual Time 7:06 AM EST 6:00 PM EST
Civil Twilight 6:38 AM EST 6:28 PM EST
Nautical Twilight 6:07 AM EST 7:00 PM EST
Astronomical Twilight 5:35 AM EST 7:31 PM EST
Moon 11:54 PM EST (2/20) 9:47 AM EST (2/20)
Length of Visible Light 11h 49m
Length of Day
10h 54m
Waning Gibbous, 71% of the Moon is Illuminated
Feb 20
Waning Gibbous
Feb 22
Last Quarter
Mar 1
New
Mar 8
First Quarter
Mar 16
Full

Hourly Weather History & Observations

Time (EST) Temp. Windchill Dew Point Humidity Pressure Visibility Wind Dir Wind Speed Gust Speed Precip Events Conditions
12:53 AM 34.0 °F 29.8 °F 28.9 °F 82% 30.11 in 8.0 mi SSE 4.6 mph - N/A   Clear
1:53 AM 32.0 °F 26.4 °F 28.0 °F 85% 30.12 in 5.0 mi SSE 5.8 mph - N/A   Clear
2:53 AM 30.9 °F 26.2 °F 27.0 °F 85% 30.15 in 4.0 mi SE 4.6 mph - N/A   Clear
3:53 AM 33.1 °F - 28.0 °F 82% 30.14 in 6.0 mi Calm Calm - N/A   Haze
4:15 AM 30.2 °F 24.3 °F 26.6 °F 86% 30.11 in 2.0 mi SE 5.8 mph - N/A   Clear
4:28 AM 30.2 °F 26.7 °F 26.6 °F 86% 30.11 in 4.0 mi ESE 3.5 mph - N/A   Clear
4:53 AM 30.9 °F 27.5 °F 27.0 °F 85% 30.15 in 3.0 mi ESE 3.5 mph - N/A   Clear
5:53 AM 30.9 °F 26.2 °F 28.0 °F 89% 30.12 in 4.0 mi ESE 4.6 mph - N/A   Clear
6:53 AM 28.9 °F 22.8 °F 26.1 °F 89% 30.12 in 4.0 mi SE 5.8 mph - N/A   Clear
7:53 AM 32.0 °F 28.7 °F 28.0 °F 85% 30.09 in 6.0 mi East 3.5 mph - N/A   Clear
8:53 AM 34.0 °F 31.0 °F 27.0 °F 75% 30.07 in 8.0 mi East 3.5 mph - N/A   Clear
9:53 AM 37.0 °F 33.3 °F 27.0 °F 67% 30.02 in 10.0 mi East 4.6 mph - N/A   Mostly Cloudy
10:53 AM 42.1 °F 37.1 °F 26.1 °F 53% 29.98 in 10.0 mi SE 8.1 mph - N/A   Scattered Clouds
11:53 AM 45.0 °F 40.6 °F 28.0 °F 52% 29.94 in 10.0 mi SE 8.1 mph - N/A   Overcast
12:53 PM 42.1 °F 37.7 °F 35.1 °F 76% 29.92 in 6.0 mi SSE 6.9 mph - 0.10 in Rain Light Rain
1:53 PM 44.1 °F 39.5 °F 37.9 °F 79% 29.88 in 10.0 mi SE 8.1 mph - 0.00 in   Overcast
2:53 PM 46.0 °F 41.4 °F 39.0 °F 76% 29.86 in 10.0 mi SSE 9.2 mph - N/A   Overcast
3:53 PM 48.0 °F - 39.0 °F 71% 29.84 in 10.0 mi SSE 8.1 mph - N/A   Clear
4:53 PM 50.0 °F - 39.9 °F 68% 29.85 in 10.0 mi SSE 4.6 mph - N/A   Clear
5:53 PM 48.9 °F - 39.0 °F 69% 29.83 in 10.0 mi SE 4.6 mph - N/A   Mostly Cloudy
6:53 PM 50.0 °F - 39.0 °F 66% 29.82 in 10.0 mi SSE 6.9 mph - N/A   Clear
7:53 PM 53.1 °F - 39.9 °F 61% 29.79 in 10.0 mi SSE 11.5 mph - N/A   Mostly Cloudy
8:53 PM 55.9 °F - 42.1 °F 60% 29.77 in 10.0 mi South 11.5 mph - N/A   Clear
9:53 PM 57.9 °F - 43.0 °F 58% 29.76 in 10.0 mi South 12.7 mph - N/A   Overcast
10:53 PM 54.0 °F - 42.1 °F 64% 29.73 in 10.0 mi SSE 5.8 mph - N/A   Scattered Clouds
11:53 PM 53.1 °F - 41.0 °F 64% 29.70 in 10.0 mi SSE 9.2 mph - N/A   Clear